| time (UTC) | temp C | wind direction | speed KPH | gust KPH | rain 1hr cm | rain 24hr cm | rain mn cm | humidity % | barometer mb |
| 20260502231803 | 6 | 185 | 3.2 | 3.2 | 0.00 | 0.00 | 0.00 | 85 | 1009.6 |
| 20260502225802 | 5 | 209 | 3.2 | 3.2 | 0.00 | 0.00 | 0.00 | 88 | 1009.7 |
| 20260502223802 | 6 | 215 | 1.6 | 1.6 | 0.00 | 0.00 | 0.00 | 88 | 1009.7 |
| 20260502221801 | 6 | 206 | 3.2 | 3.2 | 0.00 | 0.00 | 0.00 | 86 | 1009.6 |
| 20260502215802 | 7 | 174 | 1.6 | 1.6 | 0.00 | 0.00 | 0.00 | 85 | 1009.5 |
| 20260502213802 | 8 | 149 | 4.8 | 4.8 | 0.00 | 0.00 | 0.00 | 82 | 1009.4 |
| 20260502211802 | 8 | 211 | 3.2 | 3.2 | 0.00 | 0.00 | 0.00 | 81 | 1009.4 |
| 20260502205801 | 8 | 171 | 0.0 | 0.0 | 0.00 | 0.00 | 0.00 | 82 | 1009.4 |
| 20260502203802 | 8 | 181 | 0.0 | 0.0 | 0.00 | 0.00 | 0.00 | 81 | 1009.4 |
| 20260502201802 | 8 | 192 | 1.6 | 1.6 | 0.00 | 0.00 | 0.00 | 82 | 1009.4 |
| 20260502195802 | 8 | 170 | 0.0 | 1.6 | 0.00 | 0.00 | 0.00 | 84 | 1009.4 |
| 20260502193802 | 8 | 157 | 0.0 | 0.0 | 0.00 | 0.00 | 0.00 | 82 | 1009.3 |
| 20260502192815 | 9 | 141 | 0.0 | 0.0 | 0.00 | 0.00 | 0.00 | 77 | 1009.3 |
| 20260502191802 | 9 | 141 | 0.0 | 0.0 | 0.00 | 0.00 | 0.00 | 77 | 1009.3 |
| 20260502185802 | 9 | 144 | 0.0 | 0.0 | 0.00 | 0.00 | 0.00 | 76 | 1009.3 |
| 20260502183801 | 10 | 178 | 1.6 | 1.6 | 0.00 | 0.00 | 0.00 | 73 | 1009.3 |
| 20260502181801 | 10 | 185 | 0.0 | 3.2 | 0.00 | 0.00 | 0.00 | 72 | 1009.2 |
| 20260502163801 | 11 | 150 | 3.2 | 3.2 | 0.00 | 0.00 | 0.00 | 62 | 1010.1 |
| 20260502161802 | 11 | 181 | 1.6 | 1.6 | 0.00 | 0.00 | 0.00 | 61 | 1010.1 |
| 20260502151803 | 12 | 242 | 6.4 | 6.4 | 0.00 | 0.00 | 0.00 | 52 | 1010.1 |
| 20260502123802 | 16 | 193 | 3.2 | 4.8 | 0.00 | 0.00 | 0.00 | 43 | 1010.7 |
| 20260502121801 | 17 | 160 | 4.8 | 6.4 | 0.00 | 0.00 | 0.00 | 41 | 1010.6 |
| 20260502115802 | 17 | 140 | 3.2 | 4.8 | 0.00 | 0.00 | 0.00 | 39 | 1010.6 |
| 20260502113803 | 16 | 196 | 1.6 | 3.2 | 0.00 | 0.00 | 0.00 | 41 | 1010.8 |
| 20260502111803 | 16 | 261 | 3.2 | 6.4 | 0.00 | 0.00 | 0.00 | 39 | 1010.7 |
| 20260502105801 | 16 | 149 | 1.6 | 3.2 | 0.00 | 0.00 | 0.00 | 37 | 1010.7 |
| 20260502103801 | 16 | 260 | 6.4 | 9.7 | 0.00 | 0.00 | 0.00 | 36 | 1011.7 |
| 20260502101801 | 16 | 149 | 1.6 | 3.2 | 0.00 | 0.00 | 0.00 | 36 | 1011.7 |
| 20260502065801 | 11 | 185 | 4.8 | 4.8 | 0.00 | 0.00 | 0.00 | 57 | 1013.2 |
| 20260502063802 | 10 | 219 | 6.4 | 9.7 | 0.00 | 0.00 | 0.00 | 61 | 1013.3 |
| 20260502061801 | 8 | 173 | 6.4 | 9.7 | 0.00 | 0.00 | 0.00 | 66 | 1013.4 |
| 20260502055801 | 8 | 232 | 6.4 | 6.4 | 0.00 | 0.00 | 0.00 | 66 | 1013.4 |
| 20260502053801 | 8 | 154 | 1.6 | 1.6 | 0.00 | 0.00 | 0.00 | 67 | 1013.5 |
| 20260502045801 | 7 | 51 | 1.6 | 3.2 | 0.00 | 0.00 | 0.00 | 70 | 1014.5 |
| 20260502043801 | 7 | 225 | 0.0 | 1.6 | 0.00 | 0.00 | 0.00 | 74 | 1014.6 |
| 20260502041801 | 7 | 168 | 0.0 | 0.0 | 0.00 | 0.00 | 0.00 | 74 | 1014.6 |
| 20260502035801 | 6 | 167 | 0.0 | 0.0 | 0.00 | 0.00 | 0.00 | 77 | 1014.7 |
| 20260502034841 | 6 | 162 | 1.6 | 3.2 | 0.00 | 0.00 | 0.00 | 78 | 1015.8 |
| 20260502033832 | 6 | 162 | 1.6 | 3.2 | 0.00 | 0.00 | 0.00 | 78 | 1015.8 |
| 20260502033801 | 5 | 169 | 0.0 | 0.0 | 0.00 | 0.00 | 0.00 | 79 | 1014.8 |
| 20260502031801 | 5 | 164 | 0.0 | 0.0 | 0.00 | 0.00 | 0.00 | 82 | 1014.8 |
| 20260502025801 | 6 | 162 | 1.6 | 3.2 | 0.00 | 0.00 | 0.00 | 78 | 1015.8 |
| 20260502023801 | 5 | 161 | 0.0 | 0.0 | 0.00 | 0.00 | 0.00 | 79 | 1015.9 |
| 20260502021802 | 6 | 159 | 0.0 | 0.0 | 0.00 | 0.00 | 0.00 | 78 | 1015.8 |
| 20260502015802 | 7 | 175 | 1.6 | 3.2 | 0.00 | 0.00 | 0.00 | 75 | 1015.7 |
| 20260502013802 | 7 | 256 | 4.8 | 4.8 | 0.00 | 0.00 | 0.00 | 73 | 1015.7 |
| 20260502011801 | 7 | 186 | 1.6 | 1.6 | 0.00 | 0.00 | 0.00 | 72 | 1015.7 |
| 20260502010805 | 8 | 192 | 3.2 | 3.2 | 0.00 | 0.00 | 0.00 | 70 | 1016.6 |
| 20260502005801 | 8 | 184 | 3.2 | 4.8 | 0.00 | 0.00 | 0.00 | 72 | 1016.6 |
| 20260502003801 | 8 | 164 | 0.0 | 1.6 | 0.00 | 0.00 | 0.00 | 71 | 1016.6 |
| 20260502001802 | 8 | 268 | 4.8 | 6.4 | 0.00 | 0.00 | 0.00 | 70 | 1016.6 |
| 20260501235801 | 8 | 192 | 3.2 | 3.2 | 0.00 | 0.00 | 0.00 | 70 | 1016.6 |
| 20260501235248 | 8 | 195 | 0.0 | 1.6 | 0.00 | 0.00 | 0.00 | 69 | 1016.5 |
| 20260501233801 | 8 | 195 | 0.0 | 1.6 | 0.00 | 0.00 | 0.00 | 69 | 1016.5 |